Weather Roundup
Issued by NWS Chicago, IL

Home | Current Version | Previous Version | Text Only | Print | Product List | Glossary Off
Versions: 1 2 3 4 5 6 7 8 9 10 11 12 13 14 15 16 17 18 19 20 21 22 23 24 25 26 27 28 29 30 31 32 33 34 35 36 37 38 39 40 41 42 43 44 45 46 47 48 49 50

000
NZUS59 KLOT 010308
HRRLOT

CHICAGO AREA WEATHER ROUNDUP
NATIONAL WEATHER SERVICE CHICAGO/ROMEOVILLE IL
1000 PM CDT FRI SEP 30 2016

NOTE: "FAIR" INDICATES FEW OR NO CLOUDS BELOW 12,000 FEET WITH NO
SIGNIFICANT WEATHER AND/OR OBSTRUCTIONS TO VISIBILITY.

* THESE STATIONS ARE NOT UNDER NWS QUALITY CONTROL. THEY ALSO MAY NOT
  REPORT WEATHER SUCH AS PRECIPITATION OR FOG.

ILZ005-006-012>014-019>023-010400-
NORTHEAST ILLINOIS

CITY           SKY/WX    TMP DP  RH WIND       PRES   REMARKS
OHARE          CLOUDY    62  58  86 NE7       30.05F
MIDWAY         CLOUDY    64  57  78 NE12      30.05S
AURORA         CLOUDY    62  59  90 N7        30.06F
LANSING*       CLOUDY    61  60  97 NE8       30.04S
JOLIET*        CLOUDY    63  59  86 NE6       30.04F
WAUKEGAN       CLOUDY    62  59  90 E9        30.06F
DUPAGE AIRPORT CLOUDY    61  58  90 N7        30.05F
WHEELING       LGT RAIN  62  58  86 NE6       30.07F
KANKAKEE*      CLOUDY    60  59  98 CALM      30.04S
MORRIS*        LGT RAIN  62  57  84 NE3       30.04S
LEWIS AIRPORT* CLOUDY    61  60  96 NE6       30.05S
NORTHERLY ISL    N/A     62  58  86 NE13        N/A
$$

WIZ051-052-058>065-066-070>072-010400-
SOUTHEAST WISCONSIN

CITY           SKY/WX    TMP DP  RH WIND       PRES   REMARKS
MILWAUKEE      LGT RAIN  61  59  93 NE8       30.10F FOG
KENOSHA*       CLOUDY    61  59  93 E10       30.08F
RACINE*        CLOUDY    62  58  86 E8        30.09F
BURLINGTON     CLOUDY    58  57  97 NE6       30.09F FOG
WAUKESHA       DRIZZLE   55  55 100 NE9       30.11F
WEST BEND      DRIZZLE   68  68 100 NE12      30.12F
$$

INZ001>003-010>013-019-020-010400-
NORTHWEST INDIANA

CITY           SKY/WX    TMP DP  RH WIND       PRES   REMARKS
GARY*          CLOUDY    63  61  94 NE9G21    30.05F
MICHIGAN CITY* NOT AVBL
RENSSELAER*    NOT AVBL
VALPARAISO     CLOUDY    59  58  96 NE5       30.04F
$$

LMZ740>746-010400-
SOUTHERN LAKE MICHIGAN

STATION/POSITION TIME  SKY/WX   TEMP WIND        PRES    VSBY
                                AIR  DIR/SP/G
                 (UTC)          (F)  (DEG/KT/KT) (MB)    (MI)
HARRISON CRIB    0240            64   70/ 19/ 21   N/A
BURNHAM HARBOR   0300            61   50/  8/ 13   N/A
CALUMET HARBOR   0236            62   50/ 10/ 12 1017.0F
BURNS HARBOR     0230            62   50/ 14/ 16 1017.3F
MICHIGAN CITY    0240            60   40/  9/ 11   N/A
$$

ABBREVIATIONS USED IN REMARKS
   TC - TEMPERATURE IN CELSIUS
  WCI - WIND CHILL INDEX
   HX - HEAT INDEX
  VSB - VISIBILITY
$$



USA.gov is the U.S. government's official web portal to all federal, state and local government web resources and services.